Regional Weather Roundup
Issued by NWS

Home | Current Version | Previous Version | Text Only | Print | Product List | Glossary On
Versions: 1 2 3 4 5 6 7 8 9 10 11 12 13 14 15 16 17 18 19 20 21 22 23 24 25 26 27 28 29 30 31 32 33 34 35 36 37 38 39 40 41 42 43 44 45 46 47 48 49 50
000
ASUS43 KTOP 241608
RWRKS

WEATHER ROUNDUP FOR KANSAS
NATIONAL WEATHER SERVICE GOODLAND KS
1100 AM CDT THU JUL 24 2014

NOTE:  "FAIR" INDICATES FEW OR NO CLOUDS BELOW 12,000 FEET WITH NO
SIGNIFICANT WEATHER AND/OR OBSTRUCTIONS TO VISIBILITY.

KSZ001>006-013>018-027>032-041>047-241700-
NORTHWEST KANSAS

CITY           SKY/WX    TMP DP  RH WIND       PRES   REMARKS
GOODLAND       SUNNY     87  62  43 S13       30.06F
HAYS           SUNNY     59 N/A N/A SE18      30.06F
HILL CITY      SUNNY     84  69  60 S18G25    30.02F
RUSSELL        SUNNY     83  67  58 SE17G25   30.05F
$$

KSZ061>065-074>080-084>089-241700-
SOUTHWEST KANSAS

CITY           SKY/WX    TMP DP  RH WIND       PRES   REMARKS
DODGE CITY     SUNNY     83  70  64 S15       30.09F
ELKHART          N/A     88  60  38 SW10        N/A
GARDEN CITY    SUNNY     86  66  51 S13       30.07F
GREAT BEND     SUNNY     82  66  57 SE18      30.07F
LIBERAL        SUNNY     90  63  40 SW17      30.11F
PRATT          SUNNY     81  64  57 SE15      30.11F
$$

KSZ066>073-081>083-090>101-241700-
SOUTHEAST KANSAS

CITY           SKY/WX    TMP DP  RH WIND       PRES   REMARKS
CHANUTE        SUNNY     78  66  66 E10       30.13S
COFFEYVILLE    SUNNY     80  70  71 E7        30.11S
HUTCHINSON     SUNNY     83  65  54 SE12G17   30.10F
MEDICINE LODGE   N/A     83  69  62 S12G17    30.08F
NEWTON         SUNNY     81  63  54 SE16      30.14F
PARSONS        MOSUNNY   81  69  67 CALM      30.14R
WICHITA INTL   SUNNY     81  67  62 SE12      30.10F
WICHITA JABRA  SUNNY     81  68  64 SE12      30.10F
WICHITA MCCONL SUNNY     81  68  65 E13       30.10F
WINFIELD       SUNNY     82  69  64 E13       30.11F
$$

KSZ007>012-019>026-033>040-048>060-102>105-241700-
NORTHEAST KANSAS

CITY           SKY/WX    TMP DP  RH WIND       PRES   REMARKS
CONCORDIA      SUNNY     79  66  64 SE17      30.09F
EMPORIA        SUNNY     78  64  61 E13       30.13F
LAWRENCE       SUNNY     80  59  48 SE15      30.14F
MANHATTAN      SUNNY     82  63  52 SE14      30.11S
MARYSVILLE     SUNNY     79  63  57 SE12G17   30.12S
OLATHE IND     SUNNY     77  58  51 E13       30.16S
OLATHE EXE     SUNNY     75  58  55 SE13      30.15F
SALINA         SUNNY     85  65  51 SE16      30.09F
TOPEKA BILLARD SUNNY     80  62  54 SE13      30.14S
TOPEKA FORBES  SUNNY     80  61  52 SE12      30.14S
$$



USA.gov is the U.S. government's official web portal to all federal, state and local government web resources and services.